Tracking 22440 objects as of 27-Feb-2021
HD Live streaming from Space Station
objects crossing your sky now

DELTA 1 DEB

Track DELTA 1 DEB now!
10-day predictions


NORAD ID: 39100
Int'l Code: 1977-065GK
Perigee: 465.3 km
Apogee: 1,150.5 km
Inclination: 29.3 °
Period: 100.9 minutes
Semi major axis: 7178 km
RCS: 0.0007 m2 (small)
Launch date: July 14, 1977
Source: United States (US)
Launch site: AIR FORCE EASTERN TEST RANGE (AFETR)

Note: This is SATELLITE DEBRIS
aabbcc
Your satellite tracking list
Your tracking list is empty




NASA's NSSDC Master Catalog

Two Line Element Set (TLE):
1 39100U 77065GK  21058.11196496  .00002352  00000-0  25467-3 0  9990
2 39100  29.2862  14.5131 0477238   1.1447 359.0145 14.27298749960091
Source of the keplerian elements: AFSPC